Regional Weather Roundup
Issued by NWS Sterling, VA

Home | Current Version | Previous Version | Text Only | Print | Product List | Glossary Off
Versions: 1 2 3 4 5 6 7 8 9 10 11 12 13 14 15 16 17 18 19 20 21 22 23 24 25 26 27 28 29 30 31 32 33 34 35 36 37 38 39 40 41 42 43 44 45 46 47 48 49 50

000
ASUS41 KLWX 131510
RWRLWX

REGIONAL WEATHER ROUNDUP
NATIONAL WEATHER SERVICE BALTIMORE MD/WASHINGTON DC
1100 AM EDT SUN JUL 13 2014

Note: "FAIR" indicates few or no clouds below 12,000 feet
with no significant weather and/or obstructions to visibility.
 TC=TEMPERATURE CELSIUS

 * =Non NWS site. Station does not report precipitation (e.g. rain,
    snow, etc.), thunder, or fog.

DCZ001-MDZ009-015-VAZ040>042-051-053>054-131600-
WASHINGTON METRO

CITY           SKY/WX    TMP DP  RH WIND       PRES   REMARKS
WASHINGTON NAT PTSUNNY   85  71  63 S9        30.04F HX  90
DULLES         PTSUNNY   82  70  66 S12       30.04F
ANDREWS AFB    SUNNY     84  72  68 SW12      30.04F
FT BELVOIR     SUNNY     83  72  68 SE12      30.05F
QUANTICO       SUNNY     83  72  69 S10       30.05F
COLLEGE PARK*  SUNNY     84  72  65 SW6       30.03F
LEESBURG*      PTSUNNY   86  73  66 SW8       30.04F HX  93
MANASSAS*      SUNNY     79  70  73 SW5       30.05F
GAITHERSBURG*  MOSUNNY   82  72  69 S5        30.07F

$$

MDZ006>007-011-014-131600-
BALTIMORE METRO

CITY           SKY/WX    TMP DP  RH WIND       PRES   REMARKS
BWI AIRPORT    MOSUNNY   84  70  62 SW8       30.02F
MD SCIENCE CTR   N/A     86  70  58 MISG      30.02F HX  90
MARTIN STATE   MOSUNNY   84  75  74 SW8       30.04F HX  92
ANNAPOLIS      MOSUNNY   84  71  65 VRB6      30.03F
FORT MEADE*    SUNNY     82  72  69 SW6       30.05F

$$

MDZ012-015-019>023-131600-
MARYLAND EASTERN SHORE

CITY           SKY/WX    TMP DP  RH WIND       PRES   REMARKS
OCEAN CITY     PTSUNNY   77  71  82 S9        30.09F
SALISBURY      PTSUNNY   87  71  58 S9G16     30.08F HX  93
BAY BRIDGE AP*   N/A     82  70  65 S10G18    30.04F
EASTON*        MOSUNNY   84  73  70 SW14G20   30.09F HX  91

$$

MDZ017>025-131600-
SOUTHERN MARYLAND

CITY           SKY/WX    TMP DP  RH WIND       PRES   REMARKS
PATUXENT RIVER PTSUNNY   82  71  69 S14G22    30.06F
ST INIGOES     MOSUNNY   82  71  69 S12       30.06F
LEONARDTOWN*   MOSUNNY   81  68  65 SW13      30.08F

$$

MDZ003>005-131600-
NORTH CENTRAL MARYLAND

CITY           SKY/WX    TMP DP  RH WIND       PRES   REMARKS
FREDERICK*     SUNNY     82  73  74 SW6       30.05F
HAGERSTOWN APT CLOUDY    80  69  69 S8        30.03S
WESTMINSTER*   MOSUNNY   84  72  65 S8        30.04F

$$

MDZ501>502-131600-
WESTERN MARYLAND

CITY           SKY/WX    TMP DP  RH WIND       PRES   REMARKS
OAKLAND*       MOSUNNY   77  55  47 SW8G18    30.13F
CUMBERLAND*    MOSUNNY   77  66  69 CALM      30.07S

$$

VAZ025>031-131600-
SHENANDOAH VALLEY

CITY           SKY/WX    TMP DP  RH WIND       PRES   REMARKS
WINCHESTER*    PTSUNNY   82  68  61 SW7       30.04F
STAUNTON*      MOSUNNY   84  64  50 SW9       30.11S

$$

WVZ021-048>050-054>055-131600-
EASTERN WEST VIRGINIA PANHANDLE

CITY           SKY/WX    TMP DP  RH WIND       PRES   REMARKS
MARTINSBURG    CLOUDY    84  65  52 SW9       30.03F
PETERSBURG*    CLOUDY    79  65  61 CALM      30.06S

$$

VAZ036>039-050-131600-
CENTRAL FOOTHILLS

CITY           SKY/WX    TMP DP  RH WIND       PRES   REMARKS
CHARLOTTESVILL SUNNY     82  70  66 S9        30.07F
ORANGE*        MOSUNNY   82  70  65 S12       30.08S

$$

VAZ055>057-131600-
NORTH AND CENTRAL PIEDMONT

CITY           SKY/WX    TMP DP  RH WIND       PRES   REMARKS
FREDERICKSBRG* MOSUNNY   85  69  59 SW10G16   30.05S
STAFFORD*      MOSUNNY   84  70  62 SW6       30.09S

$$

NCZ024-NYZ072-PAZ021-071-VAZ022-071-131600-
OTHER REGIONAL OBSERVATIONS

CITY           SKY/WX    TMP DP  RH WIND       PRES   REMARKS
NEW YORK CITY  CLOUDY    74  70  87 VRB5      30.08F
PHILADELPHIA   MOSUNNY   82  70  66 S13       30.04F
PITTSBURGH     CLOUDY    77  67  71 SW9       29.97F
ROANOKE        PTSUNNY   80  66  62 W8        30.14F
RICHMOND       PTSUNNY   90  68  48 SW15G24   30.08F HX  94
RALEIGH        PTSUNNY   86  70  58 SW6       30.14F HX  90

$$

ANZ530>537-131600-
MARINE OBSERVATIONS

STATION/POSITION TIME  TEMP    WIND        PRES
                       AIR SEA DIR/SP/G
                 (UTC) (F)     (DEG/KT/KT) (MB)
THOMAS PT LIGHT  1500   80 79  200/ 13/ 14 1017.6F
BALT KEY BRIDGE  1500   85     180/  8/ 11 1016.5F
COVE POINT       1500   81     210/ 12/ 15 1017.7F
LEWISETTA        1500   82 81  220/ 13/ 16 1017.8F
SOLOMONS ISLAND  1500      80                N/A
PINEY POINT      1500          230/  4/  6   N/A

$$




USA.gov is the U.S. government's official web portal to all federal, state and local government web resources and services.